User: anonymous   Login
Location: Mount Wilson Observatory
(34.2257°N, 118.0571°W)
Time: 22:19:38
(UTC-07:00)
Language:

ATLAS 3B CENTAUR R/B - Orbit

View from above orbital plane
View from above orbital plane
View from above satellite
View from above satellite

Ground track
Ground track

The orbit data is extracted from the following two-line orbital elements,

1 28118U 03057B   15117.76045383  .00115444  00000-0  20569-2 0  9999
2 28118 028.1280 206.3901 3637360 068.9685 065.8139 08.21746144220614
Epoch (UTC): 27 April 2015 18:15:03
Eccentricity: 0.3637360
inclination: 28.1280°
perigee height: 222 km
apogee height: 7768 km
right ascension of ascending node: 206.3901°
argument of perigee: 68.9685°
revolutions per day: 8.21746144
mean anomaly at epoch: 65.8139°
orbit number at epoch: 22061

The dashed part of the orbit path shows where the satellite is in the earth's shadow,  

DLR